MIDAS 4 DEB, 194

Orbit data source: Space-Track

MIDAS 4 DEB, 194 is space debris in LEO originally from a launch on Sat, 21 Oct 1961 UTC via an ATLAS AGENA B launch vehicle from the Air Force Western Test Range (AFWTR). Debris objects in space refer to the collection of defunct objects orbiting the Earth. Examples of debris include non-operational satellites, rocket bodies, and fragments generated from explosions, collisions, or faulty payload assembly.

Loading next visibility...
Identifier
194, 1961-028C
Orbit
LEO
Country
Flag of USUS
Related business
Manufacturer
MIT-LL
Mission
Spacecraft
Bus & Motor
WESTFORD, Unknown motor
Mass
30 kg wet, 30 kg dry
Launch date (UTC)
1961-10-21 (64 years ago)
Launch vehicle
ATLAS AGENA B
Launch site
Air Force Western Test Range (AFWTR)
Object type
Payload
Rocket body
Debris
Shape & HBR
Cyl, 0.3 m
Radar Cross Section
0.094 m², Medium (>0.1 m² and < 1m²)

Expand to show TLE details & history
Last TLE update: 1 day ago

TLE from 1 day ago
0 MIDAS 4 DEB
1 00194U 61028C   25242.31098693  .00000091  00000-0  38162-1 0  9996
2 00194  95.8266 187.2877 0407821 107.7531 256.8254  8.70098069 27837
Epoch: 2025-08-30T07:27Z
TLE epoch observation values (Epoch: 2025-08-30T07:27:49.27Z)
Latitude
-0.00001°
Longitude
96.5853°
Altitude
3,717.557 km
Speed
6.25 km/s
True Right ascension
12h 29m 09s
True Declination
0° 00' 00"
Sunlit
Object was in daylight at epoch
Visualization orbit readout
Latitude
Unknown
Longitude
Unknown
Altitude
Unknown
Speed
Unknown
Apparent Right ascension
Unknown
Apparent Declination
Unknown
Sunlit
N/A
Visualization observer readout
Local Sidereal Time
23:29:10
Azimuth
Unknown
Elevation
Unknown
Doppler factor
Unknown
Orbital elements
Apogee altitude
4,012.048 km
Perigee altitude
3,197.788 km
Semi-major axis
9,983.055 km
Eccentricity
0.04078
Inclination
95.8266°
RAAN
187.2877°
Arg. of periapsis
107.7531°
True anomaly
252.332°
Mean anomaly
256.8254°
Eccentric anomaly
254.57295°
Mean motion
2.17595 °/min
Orbital period
165.45 mins
BSTAR
0.038162
Loading maneuver chart data...
Computing Atmospheric mass density...
Loading historical data...
Loading historical data...
Loading historical data...
Loading historical data...
Loading historical data...
Loading historical data...
Loading historical data...

Documentation

Showing up to 5 results
|